EW8371 Weather Reports


Display with metric or nautical units.
time (UTC)temp
F
wind
direction
speed
MPH
gust
MPH
rain 1hr
in
rain 24hr
in
rain mn
in
humidity
%
barometer
mb
20260901113030 66 131 0.0 0.0 0.12 0.34 0.34 1 1012.9
20260901111526 66 131 0.0 0.0 0.13 0.34 0.34 1 1012.6
20260901110024 65 131 0.0 0.0 0.13 0.34 0.34 1 1012.8
20260901104528 66 126 0.0 2.0 0.08 0.28 0.28 1 1012.9
20260901103021 65 239 0.0 1.0 0.01 0.22 0.22 1 1012.9
20260901101519 65 239 0.0 2.0 0.00 0.21 0.21 1 1012.4
20260901100017 65 166 0.0 0.0 0.10 0.21 0.21 1 1012.5
20260901094509 65 166 0.0 0.0 0.12 0.21 0.21 1 1012.3
20260901093002 65 166 0.0 1.0 0.13 0.21 0.21 1 1012.3
20260901091558 65 163 0.0 3.0 0.14 0.21 0.21 1 1012.4
20260901084607 65 156 0.0 2.0 0.02 0.09 0.09 1 1012.4
20260901083050 65 155 0.0 2.0 0.01 0.08 0.08 1 1012.4
20260901081544 65 192 1.0 3.0 0.00 0.07 0.07 1 1012.4
20260901080039 65 168 0.0 0.0 0.00 0.07 0.07 1 1012.4
20260901074536 64 183 0.0 0.0 0.01 0.07 0.07 1 1012.6
20260901073101 64 183 0.0 0.0 0.03 0.07 0.07 1 1012.7
20260901071556 65 160 0.0 2.0 0.03 0.07 0.07 1 1012.9
20260901070024 64 160 0.0 0.0 0.05 0.07 0.07 1 1013.1
20260901064532 64 160 0.0 0.0 0.04 0.06 0.06 1 1013.1
20260901063010 65 158 0.0 0.0 0.02 0.04 0.04 1 1013.2
20260901061506 65 159 0.0 0.0 0.02 0.04 0.04 1 1013.4
20260901060001 64 159 0.0 0.0 0.00 0.02 0.02 1 1013.5
20260901054602 65 159 0.0 0.0 0.01 0.02 0.02 1 1013.7
20260901053117 65 160 0.0 0.0 0.01 0.02 0.02 1 1014.0
20260901051547 64 160 0.0 0.0 0.01 0.02 0.02 1 1014.0
20260901050044 64 160 0.0 0.0 0.01 0.02 0.02 1 1014.1
20260901044538 64 160 0.0 0.0 0.00 0.01 0.01 1 1014.1
20260901043032 64 160 0.0 1.0 0.00 0.01 0.01 1 1014.1
20260901041528 64 160 0.0 0.0 0.00 0.01 0.01 1 1014.1
20260901040023 64 140 0.0 0.0 0.00 0.01 0.01 1 1014.0
20260901034525 64 138 0.0 0.0 0.00 0.01 0.01 1 1014.3
20260901033053 64 140 0.0 0.0 0.00 0.01 0.01 1 1014.3
20260901031553 64 145 0.0 1.0 0.00 0.01 0.01 1 1014.4
20260901030036 64 125 0.0 0.0 0.00 0.01 0.01 1 1014.3
20260901024532 64 126 0.0 1.0 0.00 0.01 0.01 1 1014.3
20260901023029 64 160 0.0 0.0 0.00 0.01 0.01 1 1014.6
20260901021523 64 138 0.0 0.0 0.00 0.01 0.01 1 1014.8
20260901020016 64 134 0.0 0.0 0.00 0.01 0.01 1 1014.9
20260901014512 64 128 0.0 0.0 0.00 0.01 0.01 1 1014.9
20260901013008 64 130 0.0 1.0 0.00 0.01 0.01 1 1014.9
20260901011504 64 155 0.0 0.0 0.00 0.01 0.01 1 1014.9
20260901010057 64 165 0.0 0.0 0.00 0.01 0.01 1 1014.9
20260901004552 64 161 0.0 0.0 0.00 0.01 0.01 1 1014.7
20260901003048 64 135 0.0 0.0 0.00 0.01 0.01 1 1014.6
20260901001544 64 139 0.0 0.0 0.00 0.01 0.01 1 1014.5
20260901000036 64 139 0.0 0.0 0.00 0.01 0.01 1 1014.6
20260831234532 64 136 0.0 0.0 0.00 0.01 0.01 1 1014.6
20260831233027 64 146 0.0 3.0 0.00 0.01 0.01 1 1014.9
20260831231523 65 149 0.0 2.0 0.00 0.01 0.01 1 1015.0
20260831230016 65 140 0.0 1.0 0.00 0.01 0.01 1 1015.1
20260831224511 65 161 0.0 3.0 0.00 0.01 0.01 1 1015.2
20260831223006 66 150 2.0 5.0 0.00 0.02 0.01 1 1015.3
20260831221513 67 195 0.0 7.0 0.00 0.02 0.01 1 1015.4
20260831220058 68 216 0.0 4.0 0.00 0.02 0.01 1 1015.5
20260831214553 68 151 1.0 3.0 0.00 0.02 0.01 1 1015.5
20260831213054 69 142 0.0 0.0 0.00 0.03 0.01 1 1015.5
20260831211559 69 128 0.0 0.0 0.00 0.03 0.01 1 1015.5
20260831210037 69 125 0.0 0.0 0.00 0.03 0.01 1 1015.6
20260831204535 69 162 0.0 2.0 0.00 0.03 0.01 2 1015.5
20260831203035 68 169 1.0 7.0 0.00 0.03 0.01 5 1015.7
20260831201528 69 188 2.0 6.0 0.00 0.03 0.01 1 1015.7
20260831200023 69 157 1.0 4.0 0.00 0.03 0.01 4 1015.7
20260831194619 69 154 0.0 5.0 0.00 0.03 0.01 5 1016.0
20260831193042 69 178 1.0 3.0 0.00 0.03 0.01 7 1016.0
20260831191537 68 179 0.0 4.0 0.00 0.03 0.01 6 1016.1
20260831190030 69 197 2.0 5.0 0.00 0.03 0.01 10 1016.4
20260831184540 69 217 2.0 4.0 0.00 0.03 0.01 11 1016.7
20260831183021 69 186 2.0 4.0 0.00 0.03 0.01 8 1016.7
20260831181521 68 193 1.0 5.0 0.00 0.03 0.01 5 1016.7
20260831180010 68 154 2.0 6.0 0.00 0.03 0.01 1 1016.8
20260831174506 67 169 2.0 8.0 0.01 0.03 0.01 1 1017.1
20260831173101 67 156 4.0 9.0 0.01 0.03 0.01 1 1017.4
20260831171539 67 159 5.0 10.0 0.01 0.03 0.01 1 1017.5
20260831170054 68 157 3.0 6.0 0.01 0.03 0.01 1 1017.5
20260831164514 69 163 4.0 9.0 0.00 0.02 0.00 8 1017.5
20260831163011 70 148 4.0 8.0 0.00 0.02 0.00 17 1017.3
20260831161507 69 184 1.0 4.0 0.00 0.02 0.00 12 1017.5
20260831160002 69 142 1.0 4.0 0.00 0.02 0.00 12 1017.6
20260831154608 69 162 1.0 6.0 0.00 0.02 0.00 7 1017.7
20260831153051 69 227 0.0 3.0 0.00 0.02 0.02 15 1017.6
20260831151546 68 183 0.0 3.0 0.00 0.02 0.02 1 1017.9
20260831150041 67 197 0.0 3.0 0.00 0.02 0.02 1 1017.9
20260831144538 67 162 1.0 4.0 0.00 0.02 0.02 1 1017.8
20260831143035 68 168 2.0 5.0 0.00 0.02 0.02 1 1017.7
20260831141531 67 190 1.0 4.0 0.00 0.02 0.02 1 1017.8
20260831140032 67 169 1.0 4.0 0.00 0.02 0.02 1 1017.7
20260831134520 65 213 0.0 4.0 0.00 0.02 0.02 1 1017.9
20260831133015 64 156 1.0 5.0 0.00 0.02 0.02 1 1017.8
20260831131513 63 182 2.0 5.0 0.00 0.02 0.02 1 1017.7
20260831130006 63 147 0.0 2.0 0.00 0.02 0.02 1 1017.6
20260831124600 62 84 1.0 3.0 0.00 0.02 0.02 1 1017.7
20260831123056 62 83 0.0 1.0 0.00 0.02 0.02 1 1017.7
20260831121552 62 73 0.0 3.0 0.00 0.02 0.02 1 1017.7
20260831120048 61 84 0.0 3.0 0.00 0.02 0.02 1 1017.9
20260831114540 61 80 0.0 2.0 0.00 0.02 0.02 1 1018.1